CNH120 UKBB-EDDP

Flight info

Callsign CNH120
Flight time N/A
Altitude 32000
Route KAFEL1R/36R KAFEL N164 LAPVA DCT GIDNO/K0854F340 T708 DIBED/N0461F340 L981 ETITI DCT LUMVE DCT NAROX Z348 RENDO M748 OSKAN DCT LUXBO LUXBO1R
Aircraft T154/M-SDGRWY/S

Departure

Time 2026-04-30 17:56
Airport Boryspil International Airport (UKBB)

Arrival

Time N/A
Airport Leipzig/Halle Airport (EDDP)
Time Latitude Longitude Altitude Speed Heading
2026-04-30 17:39 50.33737 30.89558 419 ft 0 kts 91°
2026-04-30 17:48 50.33737 30.89564 419 ft 1 kts 91°
2026-04-30 17:48 50.33686 30.89595 419 ft 4 kts 177°
2026-04-30 17:49 50.33520 30.89656 416 ft 12 kts 117°
2026-04-30 17:50 50.33455 30.90121 416 ft 10 kts 161°
2026-04-30 17:51 50.33239 30.90116 416 ft 11 kts 183°
2026-04-30 17:52 50.32961 30.90095 413 ft 15 kts 183°
2026-04-30 17:53 50.32510 30.90079 409 ft 2 kts 162°
2026-04-30 17:54 50.32475 30.90329 409 ft 12 kts 57°
2026-04-30 17:55 50.34587 30.90518 758 ft 199 kts
2026-04-30 17:56 50.41678 30.90938 4217 ft 273 kts
2026-04-30 17:57 50.47127 30.90331 7622 ft 272 kts 341°
2026-04-30 17:58 50.51253 30.84177 10324 ft 292 kts 302°
2026-04-30 17:59 50.53845 30.71966 13954 ft 304 kts 278°
2026-04-30 18:00 50.52824 30.58589 17149 ft 324 kts 242°
2026-04-30 18:00 50.48750 30.49802 19752 ft 321 kts 244°
2026-04-30 18:01 50.46706 30.43445 20581 ft 347 kts 245°
2026-04-30 18:02 50.44367 30.32902 23354 ft 328 kts 266°
2026-04-30 18:02 50.44968 30.21592 24487 ft 361 kts 279°
2026-04-30 18:03 50.46521 30.10793 26931 ft 353 kts 285°
2026-04-30 18:04 50.49395 29.99948 28775 ft 359 kts 296°
2026-04-30 18:05 50.51735 29.84032 31369 ft 358 kts 281°
2026-04-30 18:06 50.53415 29.67902 33164 ft 373 kts 276°
2026-04-30 18:07 50.54375 29.50618 33889 ft 414 kts 275°
2026-04-30 18:08 50.54877 29.36283 33734 ft 452 kts 271°
2026-04-30 18:09 50.54411 29.15949 33554 ft 472 kts 266°
2026-04-30 18:10 50.52370 28.95703 34122 ft 472 kts 258°
2026-04-30 18:11 50.49371 28.75512 33810 ft 479 kts 256°
2026-04-30 18:11 50.47025 28.60258 33527 ft 479 kts 256°
2026-04-30 18:12 50.44650 28.45033 33259 ft 481 kts 257°
2026-04-30 18:13 50.43294 28.34890 33050 ft 471 kts 258°
2026-04-30 18:13 50.41671 28.21306 32202 ft 472 kts 259°
2026-04-30 18:14 50.40461 28.09606 32250 ft 464 kts 261°
2026-04-30 18:15 50.39183 27.94663 32127 ft 461 kts 261°
2026-04-30 18:15 50.37430 27.79820 31975 ft 460 kts 257°
2026-04-30 18:16 50.35824 27.70122 31868 ft 460 kts 253°
2026-04-30 18:16 50.33851 27.60628 31774 ft 460 kts 253°
2026-04-30 18:17 50.32251 27.51049 31961 ft 455 kts 257°
2026-04-30 18:18 50.30179 27.36584 32042 ft 454 kts 257°
2026-04-30 18:18 50.28803 27.26961 32100 ft 454 kts 256°
2026-04-30 18:19 50.27358 27.17373 32148 ft 453 kts 256°
2026-04-30 18:19 50.26006 27.07730 32146 ft 455 kts 258°
2026-04-30 18:20 50.24829 26.98071 32213 ft 456 kts 259°
2026-04-30 18:20 50.23585 26.88310 32219 ft 458 kts 257°
2026-04-30 18:21 50.22235 26.78599 32266 ft 460 kts 257°
2026-04-30 18:21 50.20706 26.68922 32293 ft 461 kts 256°
2026-04-30 18:21 50.20037 26.64070 32410 ft 459 kts 258°
2026-04-30 18:22 50.19395 26.59191 32424 ft 460 kts 258°
2026-04-30 18:22 50.17329 26.44531 32532 ft 460 kts 256°
2026-04-30 18:23 50.15843 26.34845 32588 ft 461 kts 257°
2026-04-30 18:23 50.14476 26.25090 32739 ft 459 kts 256°
2026-04-30 18:24 50.12550 26.10506 32779 ft 461 kts 261°
2026-04-30 18:25 50.11857 26.00599 32843 ft 461 kts 263°
2026-04-30 18:25 50.10696 25.85653 32740 ft 465 kts 264°
2026-04-30 18:26 50.09694 25.70749 32918 ft 461 kts 261°
2026-04-30 18:27 50.08766 25.55711 33021 ft 465 kts 264°
2026-04-30 18:28 50.07719 25.40662 33076 ft 471 kts 263°
2026-04-30 18:28 50.07374 25.35584 32953 ft 473 kts 264°
2026-04-30 18:28 50.06679 25.25438 33044 ft 473 kts 263°
2026-04-30 18:29 50.06294 25.20353 32938 ft 475 kts 262°
2026-04-30 18:29 50.05243 25.04979 32770 ft 476 kts 263°
2026-04-30 18:30 50.03960 24.84599 32639 ft 472 kts 263°
2026-04-30 18:31 50.02899 24.69422 32535 ft 472 kts 262°
2026-04-30 18:32 50.01659 24.54268 32447 ft 472 kts 262°
2026-04-30 18:33 50.00370 24.39138 32399 ft 470 kts 262°
2026-04-30 18:33 49.99145 24.24067 32486 ft 469 kts 262°
2026-04-30 18:34 49.97885 24.09014 32525 ft 469 kts 261°
2026-04-30 18:35 49.96955 23.98966 32564 ft 468 kts 260°
2026-04-30 18:35 49.96008 23.88983 32610 ft 468 kts 261°
2026-04-30 18:36 49.94667 23.74006 32550 ft 470 kts 261°
2026-04-30 18:37 49.93193 23.58945 32600 ft 468 kts 260°
2026-04-30 18:37 49.92186 23.48997 32594 ft 468 kts 260°
2026-04-30 18:38 49.91119 23.39019 32574 ft 469 kts 260°
2026-04-30 18:38 49.90120 23.29025 32493 ft 471 kts 261°
2026-04-30 18:39 49.89328 23.18922 32495 ft 469 kts 262°
2026-04-30 18:39 49.88620 23.08960 32491 ft 466 kts 264°
2026-04-30 18:40 49.88886 22.98999 32461 ft 466 kts 279°
2026-04-30 18:40 49.90800 22.89409 32395 ft 464 kts 294°
2026-04-30 18:41 49.93733 22.80583 32394 ft 460 kts 301°
2026-04-30 18:41 49.96989 22.72061 32328 ft 459 kts 302°
2026-04-30 18:42 50.00239 22.63556 32354 ft 458 kts 302°
2026-04-30 18:42 50.04626 22.50438 32329 ft 459 kts 297°
2026-04-30 18:45 50.17027 22.04852 33185 ft 455 kts 294°
2026-04-30 18:45 50.18209 22.00294 33450 ft 455 kts 294°
2026-04-30 18:45 50.19367 21.95715 33574 ft 457 kts 293°
2026-04-30 18:46 50.20442 21.91019 33712 ft 459 kts 290°
2026-04-30 18:46 50.21345 21.86229 33894 ft 460 kts 288°
2026-04-30 18:46 50.22210 21.81408 33998 ft 462 kts 288°
2026-04-30 18:46 50.23064 21.76549 34142 ft 462 kts 287°
2026-04-30 18:47 50.23880 21.71717 34186 ft 465 kts 287°
2026-04-30 18:47 50.25603 21.61931 34227 ft 469 kts 288°
2026-04-30 18:47 50.26476 21.57057 34336 ft 469 kts 288°
2026-04-30 18:48 50.27356 21.52167 34380 ft 471 kts 288°
2026-04-30 18:48 50.29104 21.42288 34416 ft 473 kts 288°
2026-04-30 18:49 50.30857 21.32354 34343 ft 476 kts 286°
2026-04-30 18:49 50.32487 21.22318 34392 ft 476 kts 287°
2026-04-30 18:50 50.34108 21.12324 34463 ft 475 kts 286°
2026-04-30 18:50 50.35782 21.02294 34517 ft 474 kts 287°
2026-04-30 18:51 50.37389 20.92335 34581 ft 471 kts 287°
2026-04-30 18:51 50.38899 20.82441 34588 ft 469 kts 286°
2026-04-30 18:52 50.40456 20.72548 34551 ft 467 kts 287°
2026-04-30 18:52 50.41070 20.68511 34863 ft 286 kts 277°